• In Belarus
  • List of Countries
  • For 7 days
  • Water Temperature
  • Satellite Maps
  • Weather Map
  • Weather Widgets
  • user-avatar
    Login

    Hourly Weather Ganja

    Today, 25 September, Monday

    Time Temperature Precipitation Wind Pressure Humidity
    00:00 +21°C° 0 mm 3 mps 729 mmHg 78%
    01:00 +21°C° 0 mm 2 mps 729 mmHg 80%
    02:00 +20°C° 0 mm 2 mps 729 mmHg 82%
    03:00 +21°C° 0 mm 1 mps 729 mmHg 85%
    04:00 +20°C° 0 mm 1 mps 729 mmHg 86%
    05:00 +20°C° 0 mm 1 mps 729 mmHg 88%
    06:00 +18°C° 0 mm 0 mps 729 mmHg 89%
    07:00 +21°C° 0 mm 1 mps 729 mmHg 83%
    08:00 +22°C° 0 mm 1 mps 729 mmHg 76%
    09:00 +23°C° 0 mm 1 mps 729 mmHg 70%
    10:00 +24°C° 0.1 mm 2 mps 729 mmHg 64%
    11:00 +25°C° 0.1 mm 2 mps 729 mmHg 58%
    12:00 +27°C° 0.1 mm 3 mps 728 mmHg 53%
    13:00 +27°C° 0.1 mm 3 mps 728 mmHg 50%
    14:00 +27°C° 0.1 mm 3 mps 728 mmHg 48%
    15:00 +28°C° 0.1 mm 4 mps 728 mmHg 46%
    16:00 +27°C° 0.2 mm 4 mps 728 mmHg 49%
    17:00 +26°C° 0.2 mm 3 mps 728 mmHg 52%
    18:00 +25°C° 0.2 mm 3 mps 728 mmHg 55%
    19:00 +25°C° 0 mm 3 mps 728 mmHg 57%
    20:00 +24°C° 0 mm 3 mps 728 mmHg 60%
    21:00 +22°C° 0 mm 4 mps 729 mmHg 62%
    22:00 +22°C° 0 mm 4 mps 729 mmHg 63%
    23:00 +21°C° 0 mm 4 mps 729 mmHg 63%

    Tomorrow, 26 September, Tuesday

    Time Temperature Precipitation Wind Pressure Humidity
    00:00 +21°C° 0 mm 3 mps 728 mmHg 64%
    01:00 +20°C° 0 mm 3 mps 728 mmHg 65%
    02:00 +20°C° 0 mm 3 mps 728 mmHg 65%
    03:00 +19°C° 0 mm 3 mps 728 mmHg 66%
    04:00 +19°C° 0 mm 2 mps 728 mmHg 67%
    05:00 +19°C° 0 mm 2 mps 728 mmHg 68%
    06:00 +19°C° 0 mm 1 mps 728 mmHg 69%
    07:00 +19°C° 0 mm 2 mps 728 mmHg 64%
    08:00 +20°C° 0 mm 2 mps 728 mmHg 60%
    09:00 +22°C° 0 mm 3 mps 728 mmHg 55%
    10:00 +24°C° 0 mm 3 mps 728 mmHg 52%
    11:00 +25°C° 0 mm 3 mps 727 mmHg 49%
    12:00 +26°C° 0 mm 3 mps 727 mmHg 46%
    13:00 +26°C° 0 mm 4 mps 727 mmHg 46%
    14:00 +26°C° 0 mm 4 mps 726 mmHg 46%
    15:00 +27°C° 0 mm 4 mps 726 mmHg 46%
    16:00 +25°C° 0 mm 4 mps 726 mmHg 51%
    17:00 +23°C° 0 mm 4 mps 726 mmHg 56%
    18:00 +22°C° 0 mm 5 mps 726 mmHg 62%
    19:00 +22°C° 0 mm 5 mps 727 mmHg 65%
    20:00 +21°C° 0 mm 5 mps 727 mmHg 68%
    21:00 +20°C° 0 mm 6 mps 727 mmHg 71%
    22:00 +20°C° 0 mm 5 mps 727 mmHg 72%
    23:00 +19°C° 0 mm 5 mps 727 mmHg 74%

    Day after tomorrow, 27 September, Wednesday

    Time Temperature Precipitation Wind Pressure Humidity
    00:00 +19°C° 0 mm 5 mps 727 mmHg 75%
    01:00 +19°C° 0 mm 4 mps 727 mmHg 75%
    02:00 +18°C° 0 mm 4 mps 727 mmHg 76%
    03:00 +18°C° 0 mm 4 mps 727 mmHg 76%
    04:00 +18°C° 0.1 mm 3 mps 726 mmHg 77%
    05:00 +18°C° 0.1 mm 3 mps 726 mmHg 78%
    06:00 +18°C° 0.1 mm 3 mps 726 mmHg 79%
    07:00 +18°C° 0.1 mm 3 mps 726 mmHg 77%
    08:00 +18°C° 0.1 mm 3 mps 727 mmHg 75%
    09:00 +19°C° 0.1 mm 3 mps 727 mmHg 72%
    10:00 +19°C° 0.2 mm 3 mps 726 mmHg 72%
    11:00 +19°C° 0.2 mm 3 mps 726 mmHg 72%
    12:00 +19°C° 0.2 mm 3 mps 726 mmHg 73%
    13:00 +19°C° 0.1 mm 3 mps 726 mmHg 73%
    14:00 +19°C° 0.1 mm 3 mps 726 mmHg 74%
    15:00 +19°C° 0.1 mm 3 mps 726 mmHg 74%
    16:00 +19°C° 0.1 mm 3 mps 726 mmHg 77%
    17:00 +18°C° 0.1 mm 3 mps 726 mmHg 79%
    18:00 +18°C° 0.1 mm 3 mps 727 mmHg 81%
    19:00 +17°C° 0.5 mm 3 mps 727 mmHg 83%
    20:00 +17°C° 0.5 mm 2 mps 727 mmHg 85%
    21:00 +17°C° 0.5 mm 2 mps 727 mmHg 86%
    22:00 +16°C° 0.4 mm 2 mps 727 mmHg 87%
    23:00 +16°C° 0.4 mm 2 mps 727 mmHg 88%

    28 September, Thursday

    Time Temperature Precipitation Wind Pressure Humidity
    00:00 +16°C° 0.4 mm 2 mps 727 mmHg 89%
    01:00 +16°C° 0.5 mm 2 mps 727 mmHg 90%
    02:00 +16°C° 0.5 mm 2 mps 727 mmHg 90%
    03:00 +16°C° 0.5 mm 3 mps 727 mmHg 91%
    04:00 +16°C° 0.3 mm 3 mps 727 mmHg 90%
    05:00 +16°C° 0.3 mm 3 mps 727 mmHg 90%
    06:00 +16°C° 0.3 mm 3 mps 727 mmHg 90%
    07:00 +16°C° 0.6 mm 3 mps 728 mmHg 89%
    08:00 +15°C° 0.6 mm 4 mps 728 mmHg 87%
    09:00 +15°C° 0.6 mm 4 mps 728 mmHg 86%
    10:00 +15°C° 0.4 mm 4 mps 728 mmHg 85%
    11:00 +15°C° 0.4 mm 5 mps 728 mmHg 84%
    12:00 +15°C° 0.4 mm 5 mps 728 mmHg 82%
    13:00 +15°C° 0.2 mm 5 mps 728 mmHg 82%
    14:00 +15°C° 0.2 mm 4 mps 728 mmHg 82%
    15:00 +15°C° 0.2 mm 4 mps 728 mmHg 82%
    16:00 +15°C° 0.1 mm 4 mps 728 mmHg 83%
    17:00 +15°C° 0.1 mm 4 mps 729 mmHg 84%
    18:00 +14°C° 0.1 mm 3 mps 729 mmHg 86%
    19:00 +14°C° 0.1 mm 3 mps 729 mmHg 86%
    20:00 +14°C° 0.1 mm 3 mps 730 mmHg 87%
    21:00 +14°C° 0.1 mm 3 mps 730 mmHg 87%
    22:00 +14°C° 0.4 mm 3 mps 730 mmHg 88%
    23:00 +14°C° 0.4 mm 3 mps 730 mmHg 89%

    29 September, Friday

    Time Temperature Precipitation Wind Pressure Humidity
    00:00 +13°C° 0.4 mm 3 mps 729 mmHg 90%
    01:00 +13°C° 0.4 mm 3 mps 729 mmHg 91%
    02:00 +13°C° 0.4 mm 3 mps 729 mmHg 91%
    03:00 +14°C° 0.4 mm 2 mps 729 mmHg 92%
    04:00 +14°C° 0.2 mm 2 mps 729 mmHg 91%
    05:00 +14°C° 0.2 mm 2 mps 729 mmHg 91%
    06:00 +14°C° 0.2 mm 2 mps 729 mmHg 91%
    07:00 +15°C° 0.1 mm 2 mps 729 mmHg 90%
    08:00 +14°C° 0.1 mm 3 mps 729 mmHg 89%
    09:00 +14°C° 0.1 mm 3 mps 729 mmHg 87%
    10:00 +14°C° 0.1 mm 3 mps 729 mmHg 86%
    11:00 +16°C° 0.1 mm 3 mps 728 mmHg 85%
    12:00 +16°C° 0.1 mm 3 mps 728 mmHg 84%
    13:00 +16°C° 0.1 mm 3 mps 728 mmHg 84%
    14:00 +16°C° 0.1 mm 3 mps 727 mmHg 84%
    15:00 +16°C° 0.1 mm 2 mps 727 mmHg 84%
    16:00 +16°C° 0 mm 2 mps 727 mmHg 85%
    17:00 +15°C° 0 mm 2 mps 727 mmHg 86%
    18:00 +15°C° 0 mm 2 mps 727 mmHg 87%
    19:00 +15°C° 0 mm 2 mps 727 mmHg 87%
    20:00 +15°C° 0 mm 2 mps 727 mmHg 88%
    21:00 +15°C° 0 mm 2 mps 727 mmHg 88%
    22:00 +15°C° 0 mm 2 mps 727 mmHg 88%
    23:00 +15°C° 0 mm 2 mps 727 mmHg 88%

    30 September, Saturday

    Time Temperature Precipitation Wind Pressure Humidity
    00:00 +15°C° 0 mm 2 mps 726 mmHg 87%
    01:00 +15°C° 0 mm 1 mps 726 mmHg 88%
    02:00 +15°C° 0 mm 1 mps 726 mmHg 88%
    03:00 +15°C° 0 mm 1 mps 726 mmHg 88%
    04:00 +15°C° 0.1 mm 1 mps 726 mmHg 88%
    05:00 +15°C° 0.1 mm 1 mps 726 mmHg 88%
    06:00 +15°C° 0.1 mm 1 mps 725 mmHg 88%
    07:00 +15°C° 0.3 mm 1 mps 725 mmHg 85%
    08:00 +16°C° 0.3 mm 1 mps 725 mmHg 81%
    09:00 +17°C° 0.3 mm 2 mps 725 mmHg 78%
    10:00 +17°C° 0 mm 2 mps 725 mmHg 76%
    11:00 +18°C° 0 mm 2 mps 725 mmHg 74%
    12:00 +19°C° 0 mm 2 mps 724 mmHg 72%
    13:00 +19°C° 0.2 mm 2 mps 724 mmHg 73%
    14:00 +20°C° 0.2 mm 1 mps 724 mmHg 74%
    15:00 +20°C° 0.2 mm 1 mps 723 mmHg 74%
    16:00 +19°C° 0 mm 1 mps 723 mmHg 78%
    17:00 +18°C° 0 mm 1 mps 723 mmHg 81%
    18:00 +17°C° 0 mm 2 mps 723 mmHg 84%
    19:00 +17°C° 0 mm 2 mps 723 mmHg 85%
    20:00 +17°C° 0 mm 2 mps 723 mmHg 85%
    21:00 +16°C° 0 mm 2 mps 723 mmHg 86%
    22:00 +16°C° 0 mm 2 mps 723 mmHg 85%
    23:00 +16°C° 0 mm 2 mps 723 mmHg 85%
    Show more